Location: Table Mountain
(47.2500°N, 120.5778°W)
Time: 22:19:19
(UTC-07:00)

Envisat - Pass Details

Date: 15 October 2017
Orbit: 764 x 766 km, 98.2° (Epoch: 19 October)

Event Time Altitude Azimuth Distance (km) Brightness Sun altitude
Exits shadow 21:43:41 28° 269° (W) 1,408 4.7 -35.4°
Drops below altitude 10° 21:47:53 10° 325° (NW) 2,308 6.1 -36.0°
Sets 21:50:31 0° 337° (NNW) 3,239 6.9 -36.4°
